History for GMFF

Fes-Sais, Morocco

Daily Weekly Monthly
Daily Summary for Wednesday, April 24, 2019
  Actual: Average: Record:
Temperature
Mean Temperature: 55 °F / 12 °C - :  
Max Temperature: 69 °F / 20 °C 75 °F / 23 °C 86 °F / 30 °C (2008)
Min Temperature: 41 °F / 5 °C 50 °F / 10 °C 41 °F / 5 °C (2012)
Degree Days
Heating Degree Days: 10    
Growing Degree Days 5 (Base 50)    
Moisture
Dew Point 43 °F / 6 °C    
Average Humidity 70    
Maximum Humidity 100    
Minimum Humidity 30    
Precipitation
Precipitation 0.00 in / 0.0 cm 0.08 in / 2.0 cm - ()
Sea Level Pressure
Sea Level Pressure 29.96 in / 1014.38 hPa   
Wind
Wind Speed 5 mph / 8 km/h ()  
Max Wind Speed 14 mph / 22 km/h   
Max Gust Speed -   
Visibility 6.2 miles / 10.0 kilometers   
Events     
Averages and records for this station are not official NWS values.
Key: T is trace of precipitation, MM is missing value
Source: Averaged Metar Reports
Seasonal Weather Averages

Graphs

Observations

History Graphs Observations

Obs Go Here...

Features

Weather Apps

WunderRadio

Weather Underground Apps
Check out our wide variety of mobile and setup applications.

Weather Underground Applications

Top of Page

© Copyright 2019
The Weather Company, LLC
Time(+01)TemperatureDew PointHumidity Sea Level Pressure Visibility Wind DirectionWind SpeedGust SpeedPrecipitationEvents Conditions
12:00 AM 46.4 °F / 8.0 °C 44.6 °F / 7.0 °C 93% 29.92 in / 1013 hPa 6.2 miles / 10.0 kilometers SSW 4.6 mph / 7.4 km/h - N/A   Scattered Clouds
12:30 AM 46.4 °F / 8.0 °C 44.6 °F / 7.0 °C 93% 29.92 in / 1013 hPa 6.2 miles / 10.0 kilometers Variable 2.3 mph / 3.7 km/h - N/A   Scattered Clouds
1:00 AM 45 °F / 7 °C 43 °F / 6 °C 89% 29.97 in / 1015 hPa 34 miles / 55 kilometers South 4.6 mph / 7.4 km/h - -   Scattered Clouds
1:00 AM 44.6 °F / 7.0 °C 42.8 °F / 6.0 °C 93% 29.92 in / 1013 hPa 6.2 miles / 10.0 kilometers SSW 4.6 mph / 7.4 km/h - N/A   Scattered Clouds
1:30 AM 46.4 °F / 8.0 °C 44.6 °F / 7.0 °C 93% 29.92 in / 1013 hPa 6.2 miles / 10.0 kilometers SSW 5.8 mph / 9.3 km/h - N/A   Scattered Clouds
2:00 AM 44.6 °F / 7.0 °C 42.8 °F / 6.0 °C 93% 29.92 in / 1013 hPa 6.2 miles / 10.0 kilometers SW 3.5 mph / 5.6 km/h - N/A   Scattered Clouds
2:30 AM 44.6 °F / 7.0 °C 42.8 °F / 6.0 °C 93% 29.92 in / 1013 hPa 6.2 miles / 10.0 kilometers WSW 3.5 mph / 5.6 km/h - N/A   Scattered Clouds
3:00 AM 44.6 °F / 7.0 °C 42.8 °F / 6.0 °C 93% 29.92 in / 1013 hPa 6.2 miles / 10.0 kilometers SW 4.6 mph / 7.4 km/h - N/A   Scattered Clouds
3:30 AM 42.8 °F / 6.0 °C 41.0 °F / 5.0 °C 93% 29.92 in / 1013 hPa 6.2 miles / 10.0 kilometers SSW 2.3 mph / 3.7 km/h - N/A   Scattered Clouds
4:00 AM 42 °F / 6 °C 40 °F / 5 °C 92% 29.98 in / 1015 hPa 34 miles / 55 kilometers South 1.2 mph / 1.9 km/h - -   Scattered Clouds
4:00 AM 42.8 °F / 6.0 °C 42.8 °F / 6.0 °C 100% 29.92 in / 1013 hPa 6.2 miles / 10.0 kilometers Variable 2.3 mph / 3.7 km/h - N/A   Scattered Clouds
4:30 AM 42.8 °F / 6.0 °C 41.0 °F / 5.0 °C 93% 29.92 in / 1013 hPa 6.2 miles / 10.0 kilometers Variable 2.3 mph / 3.7 km/h - N/A   Scattered Clouds
5:00 AM 42.8 °F / 6.0 °C 41.0 °F / 5.0 °C 93% 29.92 in / 1013 hPa 6.2 miles / 10.0 kilometers SSW 3.5 mph / 5.6 km/h - N/A   Scattered Clouds
5:30 AM 42.8 °F / 6.0 °C 41.0 °F / 5.0 °C 93% 29.92 in / 1013 hPa 6.2 miles / 10.0 kilometers South 4.6 mph / 7.4 km/h - N/A   Scattered Clouds
6:00 AM 42.8 °F / 6.0 °C 41.0 °F / 5.0 °C 93% 29.92 in / 1013 hPa 6.2 miles / 10.0 kilometers Calm Calm - N/A   Scattered Clouds
6:30 AM 42.8 °F / 6.0 °C 41.0 °F / 5.0 °C 93% 29.92 in / 1013 hPa 6.2 miles / 10.0 kilometers Variable 5.8 mph / 9.3 km/h - N/A   Scattered Clouds
7:00 AM 45 °F / 7 °C 42 °F / 5 °C 84% 29.99 in / 1015 hPa 40 miles / 65 kilometers SSW 4.6 mph / 7.4 km/h - -   Partly Cloudy
7:00 AM 44.6 °F / 7.0 °C 42.8 °F / 6.0 °C 93% 29.95 in / 1014 hPa 6.2 miles / 10.0 kilometers SSW 5.8 mph / 9.3 km/h - N/A   Scattered Clouds
8:00 AM 50.0 °F / 10.0 °C 46.4 °F / 8.0 °C 87% 29.95 in / 1014 hPa 6.2 miles / 10.0 kilometers SW 3.5 mph / 5.6 km/h - N/A   Scattered Clouds
8:30 AM 53.6 °F / 12.0 °C 46.4 °F / 8.0 °C 77% 29.98 in / 1015 hPa 6.2 miles / 10.0 kilometers Variable 2.3 mph / 3.7 km/h - N/A   Scattered Clouds
9:00 AM 53.6 °F / 12.0 °C 41.0 °F / 5.0 °C 62% 29.98 in / 1015 hPa 6.2 miles / 10.0 kilometers WSW 5.8 mph / 9.3 km/h - N/A   Scattered Clouds
9:30 AM 57.2 °F / 14.0 °C 44.6 °F / 7.0 °C 63% 29.98 in / 1015 hPa 6.2 miles / 10.0 kilometers West 4.6 mph / 7.4 km/h - N/A   Scattered Clouds
10:00 AM 57 °F / 14 °C 43 °F / 6 °C 48% 29.99 in / 1016 hPa 47 miles / 75 kilometers West 6.9 mph / 11.1 km/h - -   Partly Cloudy
10:00 AM 57.2 °F / 14.0 °C 42.8 °F / 6.0 °C 59% 29.98 in / 1015 hPa 6.2 miles / 10.0 kilometers West 5.8 mph / 9.3 km/h - N/A   Scattered Clouds
11:00 AM 60.8 °F / 16.0 °C 44.6 °F / 7.0 °C 55% 30.01 in / 1016 hPa 6.2 miles / 10.0 kilometers West 6.9 mph / 11.1 km/h - N/A   Scattered Clouds
11:30 AM 60.8 °F / 16.0 °C 41.0 °F / 5.0 °C 48% 30.01 in / 1016 hPa 6.2 miles / 10.0 kilometers SW 8.1 mph / 13.0 km/h - N/A   Scattered Clouds
12:00 PM 62.6 °F / 17.0 °C 42.8 °F / 6.0 °C 48% 30.01 in / 1016 hPa 6.2 miles / 10.0 kilometers WNW 10.4 mph / 16.7 km/h - N/A   Mostly Cloudy
1:00 PM 65 °F / 18 °C 41 °F / 5 °C 30% 29.97 in / 1015 hPa 47 miles / 75 kilometers WNW 11.5 mph / 18.5 km/h - -   Mostly Cloudy
1:00 PM 62.6 °F / 17.0 °C 42.8 °F / 6.0 °C 48% 30.01 in / 1016 hPa 6.2 miles / 10.0 kilometers West 12.7 mph / 20.4 km/h - N/A   Mostly Cloudy
1:30 PM 66.2 °F / 19.0 °C 44.6 °F / 7.0 °C 46% 29.98 in / 1015 hPa 6.2 miles / 10.0 kilometers WNW 11.5 mph / 18.5 km/h - N/A   Mostly Cloudy
2:00 PM 66.2 °F / 19.0 °C 42.8 °F / 6.0 °C 43% 29.98 in / 1015 hPa 6.2 miles / 10.0 kilometers WNW 12.7 mph / 20.4 km/h - N/A   Mostly Cloudy
2:30 PM 66.2 °F / 19.0 °C 44.6 °F / 7.0 °C 46% 29.98 in / 1015 hPa 6.2 miles / 10.0 kilometers NW 11.5 mph / 18.5 km/h - N/A   Scattered Clouds
3:00 PM 66.2 °F / 19.0 °C 46.4 °F / 8.0 °C 49% 29.98 in / 1015 hPa 6.2 miles / 10.0 kilometers WNW 12.7 mph / 20.4 km/h - N/A   Scattered Clouds
3:30 PM 66.2 °F / 19.0 °C 44.6 °F / 7.0 °C 46% 29.98 in / 1015 hPa 6.2 miles / 10.0 kilometers NW 11.5 mph / 18.5 km/h - N/A   Scattered Clouds
4:00 PM 69 °F / 20 °C 47 °F / 8 °C 34% 29.94 in / 1014 hPa 47 miles / 75 kilometers WNW 13.8 mph / 22.2 km/h - -   Partly Cloudy
4:00 PM 68.0 °F / 20.0 °C 44.6 °F / 7.0 °C 43% 29.98 in / 1015 hPa 6.2 miles / 10.0 kilometers WNW 13.8 mph / 22.2 km/h - N/A   Scattered Clouds
5:00 PM 68.0 °F / 20.0 °C 44.6 °F / 7.0 °C 43% 29.98 in / 1015 hPa 6.2 miles / 10.0 kilometers WNW 10.4 mph / 16.7 km/h - N/A   Scattered Clouds
5:30 PM 68.0 °F / 20.0 °C 46.4 °F / 8.0 °C 46% 29.98 in / 1015 hPa 6.2 miles / 10.0 kilometers NW 8.1 mph / 13.0 km/h - N/A   Scattered Clouds
6:00 PM 64.4 °F / 18.0 °C 44.6 °F / 7.0 °C 49% 29.98 in / 1015 hPa 6.2 miles / 10.0 kilometers NW 9.2 mph / 14.8 km/h - N/A   Scattered Clouds
6:30 PM 64.4 °F / 18.0 °C 44.6 °F / 7.0 °C 49% 30.01 in / 1016 hPa 6.2 miles / 10.0 kilometers NW 10.4 mph / 16.7 km/h - N/A   Scattered Clouds